Starlink 31981

operational
NORAD ID: 60035 Int'l Des: 2024-111 Owner: SPXS Country: US Constellation: starlink
LEOCIRCULAR

Über Starlink 31981

Beschreibung wird geladen...

Live-Position

3D-Globus wird geladen...

Nächste Überflüge

Höhenverlauf

Altitude vs Time

uPlot chart will show altitude changes over time

Zweizeiliger Elementsatz

1 60035U 24111V 25351.99460184 -.00000240 00000-0 40327-5 0 9998
2 60035 53.1604 95.2282 0000993 82.5810 277.5304 15.30196957 86455
Epoch: 17. Dez. 2025 • Age: 15 hours

Aktueller Status

Höhe 491.8 km
Geschwindigkeit 7.62 km/s
Subsatellitenpunkt -46.94°S, 82.99°E
Startdatum 8. Juni 2024
Alter 1.5 years
Typ internet

Technische Details

Klassifizierung Payload
Masse 730.00 kg
Trockenmasse 700.00 kg
Gesamtmasse 730.00 kg
Länge 0.30 m
Durchmesser 4.10 m
Spannweite 29.00 m
Form Box + pan
Hersteller SPXS
Bus-Typ Starlink V2M
Phasenstatus In Orbit
Besitzer/Staat SPXS/US

Große Konstellationen

Loading constellations...